Weather History for Pipestone, MN

Change the Weather History Date:

Saturday, September 28, 2013

  Actual Average Record
Temperature  
Mean Temperature 58 °F -  
Max Temperature 71 °F 64 °F 89 °F (2011)
Min Temperature 46 °F 41 °F 33 °F (1996)
Degree Days  
Heating Degree Days 6    
Growing Degree Days 8 (Base 50)    
Moisture  
Dew Point 47 °F    
Average Humidity 73    
Maximum Humidity 100    
Minimum Humidity 37    
Precipitation  
Precipitation 0.21 in - - ()
Sea Level Pressure  
Sea Level Pressure 29.82 in    
Wind  
Wind Speed 9 mph (West)    
Max Wind Speed 20 mph    
Max Gust Speed 30 mph    
Visibility 9 miles    
Events Rain    
Averages and records for this station are not official NWS values.
T = Trace of Precipitation, MM = Missing Value Source: NWS Daily Summary

Daily Weather History Graph

Daily Weather History Graph

Search for Another Location

Airport:

Trip Planner

Search our weather history database for the weather conditions in past years. The results will help you decide how hot, cold, wet, or windy it might be!

Date:

Astronomy

Sep. 28, 2013 Rise Set
Actual Time 7:19 AM CDT 7:11 PM CDT
Civil Twilight 6:50 AM CDT 7:39 PM CDT
Nautical Twilight 6:17 AM CDT 8:13 PM CDT
Astronomical Twilight 5:43 AM CDT 8:47 PM CDT
Moon 12:57 AM CDT (9/28) 3:40 PM CDT (9/28)
Length of Visible Light 12h 48m
Length of Day
11h 51m
Waning Crescent, 36% of the Moon is Illuminated
Sep 28
Waning Crescent
Oct 4
New
Oct 11
First Quarter
Oct 18
Full
Oct 26
Last Quarter

Hourly Weather History & Observations

Time (CDT) Temp. Windchill Dew Point Humidity Pressure Visibility Wind Dir Wind Speed Gust Speed Precip Events Conditions
12:13 AM 62.6 °F - 55.4 °F 77% 29.71 in 10.0 mi Calm Calm - N/A   Clear
12:33 AM 62.6 °F - 55.4 °F 77% 29.72 in 10.0 mi Calm Calm - N/A   Scattered Clouds
12:53 AM 66.2 °F - 57.2 °F 73% 29.70 in 10.0 mi South 5.8 mph - N/A   Mostly Cloudy
1:13 AM 71.6 °F - 59.0 °F 64% 29.68 in 10.0 mi South 12.7 mph - N/A   Overcast
1:33 AM 71.6 °F - 59.0 °F 64% 29.68 in 10.0 mi South 15.0 mph - N/A   Mostly Cloudy
1:53 AM 71.6 °F - 59.0 °F 64% 29.67 in 10.0 mi South 12.7 mph 20.7 mph N/A   Mostly Cloudy
2:13 AM 71.6 °F - 59.0 °F 64% 29.66 in 10.0 mi South 12.7 mph - N/A   Scattered Clouds
2:33 AM 69.8 °F - 59.0 °F 68% 29.69 in 10.0 mi WSW 13.8 mph - N/A   Mostly Cloudy
2:53 AM 60.8 °F - 55.4 °F 82% 29.70 in 10.0 mi WNW 13.8 mph 24.2 mph N/A Rain Light Rain
3:13 AM 57.2 °F - 55.4 °F 94% 29.70 in 10.0 mi WNW 5.8 mph - 0.04 in Rain Rain
3:33 AM 57.2 °F - 55.4 °F 94% 29.68 in 10.0 mi NNW 5.8 mph - 0.08 in Rain Heavy Rain
3:53 AM 57.2 °F - 55.4 °F 94% 29.68 in 4.0 mi Calm Calm - 0.05 in Rain Heavy Rain
4:13 AM 57.2 °F - 55.4 °F 94% 29.68 in 10.0 mi Calm Calm - 0.06 in Rain Heavy Rain
4:33 AM 57.2 °F - 55.4 °F 94% 29.67 in 10.0 mi Calm Calm - 0.02 in Rain Light Rain
4:53 AM 57.2 °F - 55.4 °F 94% 29.66 in 10.0 mi Calm Calm - N/A Rain Light Rain
5:13 AM 55.4 °F - 55.4 °F 100% 29.66 in 10.0 mi NW 3.5 mph - 0.02 in Rain Rain
5:33 AM 55.4 °F - 53.6 °F 94% 29.69 in 10.0 mi West 10.4 mph - N/A Rain Light Rain
5:53 AM 55.4 °F - 53.6 °F 94% 29.68 in 10.0 mi WNW 5.8 mph - 0.01 in Rain Light Rain
6:13 AM 53.6 °F - 51.8 °F 94% 29.69 in 10.0 mi West 10.4 mph - N/A   Light Drizzle
6:33 AM 53.6 °F - 51.8 °F 94% 29.69 in 10.0 mi WNW 11.5 mph 17.3 mph N/A Rain Light Rain
6:53 AM 53.6 °F - 51.8 °F 94% 29.70 in 10.0 mi WNW 15.0 mph 18.4 mph 0.01 in Rain Light Rain
7:13 AM 51.8 °F - 51.8 °F 100% 29.71 in 10.0 mi NW 11.5 mph 19.6 mph 0.02 in Rain Light Rain
7:33 AM 51.8 °F - 50.0 °F 94% 29.72 in 10.0 mi NW 15.0 mph 21.9 mph 0.01 in Rain Light Rain
7:53 AM 51.8 °F - 50.0 °F 94% 29.72 in 10.0 mi NW 11.5 mph - 0.01 in   Overcast
8:13 AM 51.8 °F - 50.0 °F 94% 29.76 in 10.0 mi WNW 10.4 mph - N/A   Overcast
8:33 AM 51.8 °F - 50.0 °F 94% 29.77 in 2.0 mi WNW 13.8 mph 18.4 mph N/A Rain Heavy Rain
8:53 AM 51.8 °F - 50.0 °F 94% 29.77 in 2.0 mi WNW 18.4 mph - 0.02 in   Heavy Drizzle
9:13 AM 51.8 °F - 50.0 °F 94% 29.78 in 2.5 mi WNW 18.4 mph 25.3 mph N/A   Drizzle
9:32 AM 51.8 °F - 48.2 °F 88% 29.79 in 3.0 mi WNW 15.0 mph 25.3 mph N/A   Drizzle
9:53 AM 51.8 °F - 48.2 °F 88% 29.80 in 4.0 mi WNW 19.6 mph 27.6 mph N/A Rain Light Rain
10:13 AM 51.8 °F - 48.2 °F 88% 29.81 in 10.0 mi WNW 15.0 mph 23.0 mph N/A   Overcast
10:33 AM 51.8 °F - 48.2 °F 88% 29.81 in 10.0 mi WNW 15.0 mph 23.0 mph N/A   Overcast
10:53 AM 51.8 °F - 48.2 °F 88% 29.81 in 10.0 mi NW 11.5 mph 17.3 mph N/A   Mostly Cloudy
11:13 AM 51.8 °F - 48.2 °F 88% 29.83 in 10.0 mi NW 19.6 mph - N/A   Mostly Cloudy
11:33 AM 51.8 °F - 46.4 °F 82% 29.85 in 10.0 mi WNW 17.3 mph 26.5 mph N/A   Overcast
11:53 AM 51.8 °F - 46.4 °F 82% 29.85 in 10.0 mi NW 17.3 mph 21.9 mph N/A   Overcast
12:13 PM 53.6 °F - 46.4 °F 77% 29.86 in 10.0 mi WNW 18.4 mph 23.0 mph N/A   Overcast
12:33 PM 53.6 °F - 44.6 °F 72% 29.86 in 10.0 mi WNW 16.1 mph 25.3 mph N/A   Overcast
12:53 PM 55.4 °F - 44.6 °F 67% 29.87 in 10.0 mi WNW 18.4 mph 24.2 mph N/A   Mostly Cloudy
1:13 PM 57.2 °F - 42.8 °F 59% 29.87 in 10.0 mi WNW 17.3 mph 25.3 mph N/A   Scattered Clouds
1:33 PM 55.4 °F - 42.8 °F 63% 29.88 in 10.0 mi NW 16.1 mph 29.9 mph N/A   Mostly Cloudy
1:53 PM 57.2 °F - 42.8 °F 59% 29.88 in 10.0 mi NW 11.5 mph 26.5 mph N/A   Mostly Cloudy
2:13 PM 57.2 °F - 41.0 °F 55% 29.88 in 10.0 mi NW 19.6 mph 24.2 mph N/A   Mostly Cloudy
2:33 PM 57.2 °F - 39.2 °F 51% 29.88 in 10.0 mi NW 18.4 mph 25.3 mph N/A   Scattered Clouds
2:53 PM 60.8 °F - 39.2 °F 45% 29.89 in 10.0 mi WNW 17.3 mph 26.5 mph N/A   Scattered Clouds
3:13 PM 60.8 °F - 39.2 °F 45% 29.89 in 10.0 mi NW 18.4 mph 27.6 mph N/A   Clear
3:33 PM 60.8 °F - 39.2 °F 45% 29.89 in 10.0 mi NW 17.3 mph 23.0 mph N/A   Clear
3:53 PM 60.8 °F - 39.2 °F 45% 29.89 in 10.0 mi NW 15.0 mph 20.7 mph N/A   Scattered Clouds
4:13 PM 62.6 °F - 37.4 °F 39% 29.89 in 10.0 mi WNW 16.1 mph 20.7 mph N/A   Clear
4:33 PM 60.8 °F - 37.4 °F 42% 29.89 in 10.0 mi WNW 12.7 mph 21.9 mph N/A   Clear
4:53 PM 62.6 °F - 39.2 °F 42% 29.90 in 10.0 mi WNW 13.8 mph 19.6 mph N/A   Scattered Clouds
5:13 PM 62.6 °F - 37.4 °F 39% 29.90 in 10.0 mi NW 11.5 mph 19.6 mph N/A   Clear
5:33 PM 62.6 °F - 35.6 °F 37% 29.92 in 10.0 mi WNW 12.7 mph 17.3 mph N/A   Clear
5:53 PM 60.8 °F - 37.4 °F 42% 29.92 in 10.0 mi WNW 6.9 mph 10.4 mph N/A   Clear
6:13 PM 60.8 °F - 35.6 °F 39% 29.93 in 10.0 mi WNW 10.4 mph 19.6 mph N/A   Clear
6:33 PM 60.8 °F - 37.4 °F 42% 29.94 in 10.0 mi WNW 9.2 mph - N/A   Clear
6:53 PM 59.0 °F - 39.2 °F 48% 29.94 in 10.0 mi West 6.9 mph - N/A   Clear
7:13 PM 55.4 °F - 41.0 °F 58% 29.95 in 10.0 mi WSW 4.6 mph - N/A   Clear
7:33 PM 53.6 °F - 41.0 °F 62% 29.95 in 10.0 mi SW 4.6 mph - N/A   Clear
7:53 PM 51.8 °F - 42.8 °F 71% 29.94 in 10.0 mi SW 3.5 mph - N/A   Clear
8:13 PM 48.2 °F - 42.8 °F 82% 29.95 in 10.0 mi SSW 4.6 mph - N/A   Clear
8:33 PM 48.2 °F - 42.8 °F 82% 29.95 in 10.0 mi SSW 4.6 mph - N/A   Clear
8:53 PM 48.2 °F - 41.0 °F 76% 29.95 in 10.0 mi SSW 3.5 mph - N/A   Clear
9:13 PM 46.4 °F 45.2 °F 42.8 °F 87% 29.95 in 10.0 mi SSW 3.5 mph - N/A   Clear
9:33 PM 46.4 °F 44.3 °F 41.0 °F 81% 29.96 in 10.0 mi SSW 4.6 mph - N/A   Clear
9:53 PM 48.2 °F - 41.0 °F 76% 29.96 in 10.0 mi SSW 4.6 mph - N/A   Clear
10:13 PM 48.2 °F - 41.0 °F 76% 29.96 in 10.0 mi SW 5.8 mph - N/A   Clear
10:33 PM 48.2 °F - 39.2 °F 71% 29.96 in 10.0 mi SW 5.8 mph - N/A   Clear
10:53 PM 48.2 °F - 39.2 °F 71% 29.96 in 10.0 mi SW 4.6 mph - N/A   Clear
11:13 PM 48.2 °F - 39.2 °F 71% 29.96 in 10.0 mi SW 5.8 mph - N/A   Clear
11:33 PM 48.2 °F - 39.2 °F 71% 29.96 in 10.0 mi SSW 5.8 mph - N/A   Clear
11:53 PM 46.4 °F 44.3 °F 39.2 °F 76% 29.96 in 10.0 mi SW 4.6 mph - N/A   Clear